Погода Минеральные Воды

Погода Минеральные Воды : погода сейчас, прогноз погоды и архив. Всё, что Вы хотите узнать о погоде Минеральные Воды!

Поиск расширенной информации на нашем сайте:

Другие новости

Новости СМИ2

Главная страница сайта

Новости сайта

03.07.2017

Напоминаем, что на нашем специализированном сайте Метеоцентр.Азия вы можете получить высокодетализированные автоматические прогнозы погоды по пунктам России, СНГ и мира в авиационном формате (включающие направление и скорость ветра, видимость, явления погоды, количество и форму облачности, нижнюю и верхнюю границу облачности).


Погода Минеральные Воды - сегодня

Время (UTC), дата Ветер
(°,м/с) 
Видим.   Явления Облачность Т
(°С)
Тd
(°С)
f(%) Тe
(°С)
Pmin
(гПа)
dP
(гПа)
Po
(мм)
O2
(г/м3)
Тmin Tmax R s Состояние
почвы
09 19.07.17 330 (СЗ) 20000 м    ясно 
+34 +15.6 33 +45  1007.3  -1.1  730  258           
12 19.07.17 040 (СВ) 20000 м    10/10 1000 м 
[Sc]
+34.7 +11.3 24 +38  1006  -1.1  729  258           
15 19.07.17 270 (З) 20000 м    10/10 1000 м 
[Sc]
+29.2 +18.1 51 +45  1007  0.4  729  261    +36.5       
18 19.07.17 250 (З) 3{13}  10 км    ясно 
+26.4 +14.5 48 +35  1009.3  1.8  731  265           
21 19.07.17 270 (З) 10 км    ясно 
+21.6 +14.4 64 +30  1008.5  -1.3  729  269           
00 20.07.17 260 (З) 10 км    ясно 
+18.9 +14.5 76 +29  1008.4  -0.5  729  272           
03 20.07.17 260 (З) 20000 м    6/0 средняя 
[Ac lent]
+19.7 +15 74 +30  1008.7  0.5  729  271  +18.5        очень
сухая
с трещинами 
06 20.07.17 250 (З) 20000 м    ясно 
+27.2 +15.4 48 +37  1008.2  0.3  730  264           
09 20.07.17 270 (З) 20000 м    6/5 1000 м средняя 
[Sc|Ac lent]
+31.9 +13.6 33 +39  1006.9  -0.7  729  260           
12 20.07.17 220 (ЮЗ) 20000 м    10/10 1000 м 
[Sc diur, vesp]
+33.2 +14.4 32 +42  1005.9  -0.8  729  259           
15 20.07.17 250 (З) 20000 м    10/10 1000 м 
[Sc]
+26.8 +18.1 59 +42  1007  0.4  729  263    +33.9       
18 20.07.17 250 (З) 10 км    ясно 
+24.2 +17 64 +37  1009.1  1.7  730  266           
21 20.07.17 270 (З) 10 км    ясно 
+21.7 +14 62 +29  1009.8  0.4  730  270           
00 21.07.17 250 (З) 10 км    ясно 
+19.7 +15.1 75 +31  1010.8  0.7  731  272           
03 21.07.17 240 (ЮЗ) 20000 м    ясно 
+19.2 +13.6 70 +27  1012.3  1.3  732  273  +18.3        очень
сухая
с трещинами 
06 21.07.17 250 (З) 20000 м    ясно 
+24.7 +14.6 53 +33  1012.8  1.2  733  268           
09 21.07.17 310 (СЗ) 20000 м    8/8 1000 м 
[Cu med, cong]
+28.4 +14.4 42 +37  1012.4  733  265           
12 21.07.17 320 (СЗ) 20000 м    8/8 1000 м 
[Cu med, cong]
+30.3 +14.3 38 +38  1011.5  -0.6  733  263           
15 21.07.17 330 (СЗ) 20000 м    10/10 1000 м 
[Sc diur, vesp]
+29.1 +14.2 40 +37  1012  0.3  733  264    +31.1       
18 21.07.17 тихо ()   10 км    10/10 1000 м 
[Sc]
+25.3 +15.8 56 +36  1013.4  733  267           
21 21.07.17 090 (В) 10 км    ясно 
+23.7 +14.3 56 +32  1013.7  0.1  733  269           
00 22.07.17 080 (В) 10 км    8/8 1000 м 
[Sc]
+20.3 +15.7 75 +31  1014  0.1  733  272           
03 22.07.17 080 (В) 20000 м    ясно 
+20.1 +15.7 76 +31  1014.1  733  272  +19.7        очень
сухая
с трещинами 
06 22.07.17 070 (В) 20000 м    8/5 1000 м средняя 
[Sc|Ac trans]
+25.9 +14.2 48 +34  1013.2  0.1  733  267           
09 22.07.17 060 (СВ) 5-10  20000 м    4/3 1000 м средняя 
[Sc|Ac trans]
+31.4 +14.2 35 +39  1011.1  -1.4  732  262           
Время (UTC), дата Ветер
(°,м/с) 
Видим.   Явления Облачность Т
(°С)
Тd
(°С)
f(%) Тe
(°С)
Pmin
(гПа)
dP
(гПа)
Po
(мм)
O2
(г/м3)
Тmin Tmax R s Состояние
почвы

Для получения пояснительной информации подведите курсор к названию столбца.

ПОГОДА Минеральные Воды - архив

Всё, что Вы хотите узнать о погоде Минеральные Воды - удобно и подробно!

Выберите нужную дату (начиная с 1 января 2015* года) и нажмите кнопку "Найти".
Будут отображены архивные сводки погоды по пункту Минеральные Воды, начиная с указанной даты.


Отображать данные в формате CSV (для использования в таблицах Excel)


Внимание! Наш архив погоды предназначен исключительно для личного некоммерческого использования в познавательных целях. Если Вам необходимы официальные справки о состоянии погоды (для производственных, юридических, коммерческих и т.п. целей), обращайтесь в органы Росгидромета.

*Примечание: данная дата относится к архиву по метеостанциям СССР (Россия, СНГ, Балтия).
Архив по метеостанциям Зарубежной Европы и Азии (кроме Китая) хранится 10 дней, по другим регионам земного шара (Китай, Африка, Америка, Австралия, Океания) - 1 день.

Минеральные Воды - район местоположения метеостанции


Название, широта, долгота, высота метеостанции:
Минеральные Воды 44.2°ш. 43.1°д. 316 м над ур. моря [Российская Федерация]

Дополнительная информация

В oтличие oт бoльшинства пoгoдных сайтoв мы публикуем пoдрoбную метеoинфoрмацию в детальнoм прoфессиoнальнoм фoрмате.

Характеристики температуры и влажнoсти вoздуха измеряются на высoте 2 м в тени вдали oт зданий и деревьев.
Скoрoсть ветра измеряется на высoте 10 м (на урoвне рoста челoвека скoрoсть ветра ниже в 1.5-2 раза). Если метеoстанция нахoдится в гoрoде или в лесу, тo скoрoсть ветра занижена на 2-4 м/с пo сравнению с oткрытым местoм. Скoрoсть ветра над акватoриями крупных рек и oзёр, а также на вершинах хoлмoв на 2-5 м/с выше, чем в oбычных услoвиях.
Атмoсфернoе давление в разных тoчках местнoсти мoжет значительнo oтличаться oт давления на метеoстанции, в зависимoсти oт услoвий рельефа (при пoдъёме на 10 м давление пoнижается примернo на 1 мм рт.ст.).